{"data":{"norad_id":58172,"intl_designator":"2023-165C","name":"COSMOS 2571","alt_names":[],"object_type":"PAYLOAD","status":"ACTIVE","operator":null,"country":"CIS","launch_date":"2023-10-27","launch_site_code":"PLMSC","launch_vehicle":null,"mission":null,"orbit_class":"UNKNOWN","rcs_meters":null,"size_class":null,"mass_kg":null,"dimensions":null,"purposes":[],"wikipedia_slug":null,"has_3d_model":false,"image_url":null,"decayed_at":null,"tle_current":{"epoch":"2026-09-20T20:29:37.017888Z","epoch_age_seconds":208756,"freshness":"STALE","line1":"1 58172U 23165C   26263.85390067 -.00000004  00000+0  50499-4 0  9992","line2":"2 58172  67.1492  54.6128 0019654 260.9516  98.9345 13.97340521147728","mean_motion":13.97340521,"eccentricity":0.0019654,"inclination_deg":67.1492,"raan_deg":54.6128,"arg_perigee_deg":260.9516,"mean_anomaly_deg":98.9345,"bstar":5.0499e-5,"rev_number":14772,"period_min":103.05290502629,"perigee_km":888.70866970156,"apogee_km":917.32943791787,"semimajor_km":7281.1560538097,"source":"CELESTRAK","updated_at":"2026-09-22T09:00:26.531581Z"}}}